Regional Weather Roundup
Issued by NWS

Home | Current Version | Previous Version | Graphics & Text | Print | Product List | Glossary On
Versions: 1 2 3 4 5 6 7 8 9 10 11 12 13 14 15 16 17 18 19 20 21 22 23 24 25 26 27 28 29 30 31 32 33 34 35 36 37 38 39 40 41 42 43 44 45 46 47 48 49 50
000
ASUS43 KIND 200109
RWRIN

WEATHER ROUNDUP FOR INDIANA
NATIONAL WEATHER SERVICE INDIANAPOLIS IN
900 PM EDT SAT APR 19 2014

NOTE: "FAIR" INDICATES FEW OR NO CLOUDS BELOW 12,000 FEET WITH NO
SIGNIFICANT WEATHER AND/OR OBSTRUCTIONS TO VISIBILITY.

* - STATION DOES NOT REPORT WEATHER SUCH AS PRECIPITATION OR FOG.

+ - STATION NOT QUALITY CONTROLLED BY THE NATIONAL WEATHER SERVICE.
    USE DATA WITH CAUTION...ESPECIALLY DEWPOINT AND RELATIVE
    HUMIDITY OBSERVATIONS.

INZ001>003-010>013-019-020-200200-
NORTHWEST INDIANA

CITY           SKY/WX    TMP DP  RH WIND       PRES   REMARKS
GARY /AIRPORT/ MOCLDY    50  41  71 CALM      30.24R
LA PORTE +     PTCLDY    56  34  44 SE5       30.27R
MICHIGAN CITY+ MOCLDY    57  32  38 CALM      30.27R
MONTICELLO +   CLEAR     58  38  46 E7        30.25S
RENSSELAER +   PTCLDY    59  34  38 SE8       30.25R
VALPARAISO     PTCLDY    57  35  43 SE6       30.26R

$$

LMZ046-743>745-200200-
SOUTHERN LAKE MICHIGAN

STATION/POSITION TIME  TEMP WIND        PRES
                       AIR  DIR/SP/G
                 (UTC) (F)  (DEG/KT/KT) (MB)
MICHIGAN CITY    0100   62  110/  7/ 10   N/A

$$

INZ004-005-014>016-021>024-200200-
NORTH CENTRAL INDIANA

CITY           SKY/WX    TMP DP  RH WIND       PRES   REMARKS
GOSHEN         PTCLDY    53  31  42 E8        30.29R
LOGANSPORT +   PTCLDY    52  36  54 E6        30.28R
PERU/GRISSOM   PTCLDY    56  34  44 E9        30.28R
ROCHESTER +    PTCLDY    55  32  41 E8        30.29R
SOUTH BEND     PTCLDY    59  33  37 SE9       30.28S
WARSAW +       PTCLDY    52  32  46 SE7       30.29S

$$

INZ006>009-017-018-025>027-200200-
NORTHEAST INDIANA

CITY           SKY/WX    TMP DP  RH WIND       PRES   REMARKS
ANGOLA *+      CLEAR     48  28  46 SE10      30.32R
AUBURN +       CLEAR     50  21  32 E7        30.33R
FORT WAYNE     PTCLDY    50  27  40 E13       30.32R

$$

INZ028-029-035-036-043>045-051>053-200200-
WEST CENTRAL INDIANA

CITY           SKY/WX    TMP DP  RH WIND       PRES   REMARKS
GREENCASTLE +  CLEAR     55  41  58 E5        30.25R
LAFAYETTE      PTCLDY    57  37  47 E8        30.25R
TERRE HAUTE    PTCLDY    58  40  51 E8        30.22R

$$

INZ030>032-037>040-046>048-054>057-064-065-200200-
CENTRAL INDIANA

CITY           SKY/WX    TMP DP  RH WIND       PRES   REMARKS
CP ATTERBURY + CLEAR     57  36  44 NE6       30.23S
COLUMBUS       CLEAR     55  37  50 NE8       30.23
FRANKFORT +    CLEAR     57  36  44 E7        30.27
GREENWOOD *+   CLEAR     59  37  44 NE5       30.25
INDIANAPOLIS   MOCLDY    61  35  37 E7        30.24R
-EAGLE CREEK   CLEAR     60  34  37 E6        30.24R
KOKOMO *+      CLEAR     54  34  47 E8        30.28R
MARION +       CLEAR     54  32  43 E6        30.29R
MT COMFORT *+  CLEAR     54  39  58 NE7       30.26S
SHELBYVILLE    CLEAR     58  38  47 NE7       30.24R
ZIONSVILLE +   CLEAR     57  35  43 E5        30.26S

$$

INZ033-034-041-042-049-050-058-059-200200-
EAST CENTRAL INDIANA

CITY           SKY/WX    TMP DP  RH WIND       PRES   REMARKS
MUNCIE         CLEAR     54  33  45 E7        30.28R

$$

INZ060-061-067>069-081>083-085>088-200200-
SOUTHWEST INDIANA

CITY           SKY/WX    TMP DP  RH WIND       PRES   REMARKS
EVANSVILLE     CLEAR     67  40  37 NE5       30.19R
HUNTINGBURG *+ CLEAR     63  39  42 NE7       30.20R
WASHINGTON +   CLEAR     58  45  62 SE5       30.20S

$$

INZ062-063-066-070>080-084-089>092-200200-
SOUTH CENTRAL AND SOUTHEAST INDIANA

CITY           SKY/WX    TMP DP  RH WIND       PRES   REMARKS
BLOOMINGTON    CLEAR     62  35  36 E3        30.22S
NORTH VERNON + CLEAR     57  39  51 NE5       30.23

$$




USA.gov is the U.S. government's official web portal to all federal, state and local government web resources and services.